Location: Izdebno
(52.6670°N, 16.2170°E)
Time: 03:11:33
(UTC+02:00)

Transit 2A - Pass Details

Date: 01 March 2024
Orbit: 596 x 956 km, 66.7° (Epoch: 21 April)

Event Time Altitude Azimuth Distance (km) Brightness Sun altitude
Rises 03:07:34 0° 318° (NW) 2,991 - -31.9°
Reaches altitude 10° 03:09:49 10° 314° (NW) 2,120 - -31.6°
Maximum altitude 03:14:30 54° 237° (WSW) 878 - -31.0°
Drops below altitude 10° 03:19:39 10° 162° (SSE) 2,330 - -30.3°
Sets 03:22:13 0° 158° (SSE) 3,317 - -30.0°
